Location: Stanford
(52.2833°N, 2.4333°W)
Time: 02:07:55
(UTC+00:00)

Cosmos 2263 Rocket - Pass Details

Date: 22 January 2021
Orbit: 825 x 847 km, 71.0° (Epoch: 28 February)

Event Time Altitude Azimuth Distance (km) Brightness Sun altitude
Rises 20:11:39 0° 278° (W) 3,406 6.5 -32.0°
Reaches altitude 10° 20:15:12 10° 301° (WNW) 2,469 5.4 -32.6°
Maximum altitude 20:18:31 16° 337° (NNW) 2,096 4.5 -33.1°
Enters shadow 20:20:14 14° 358° (N) 2,202 4.5 -33.3°
